EW8829 Weather Reports


time (UTC)temp
C
wind
direction
speed
KPH
gust
KPH
rain 1hr
cm
rain 24hr
cm
rain mn
cm
humidity
%
barometer
mb
20260506051208 10 21 3.2 4.8 0.00 0.00 0.00 96 1007.2
20260506050707 10 50 1.6 3.2 0.00 0.00 0.00 96 1007.2
20260506050203 10 84 0.0 3.2 0.00 0.00 0.00 96 1007.6
20260506044654 10 65 1.6 1.6 0.00 0.00 0.00 95 1007.7
20260506044151 10 81 4.8 4.8 0.00 0.00 0.00 95 1007.7
20260506043648 10 57 1.6 3.2 0.00 0.00 0.00 95 1007.6
20260506043146 10 57 1.6 3.2 0.00 0.00 0.00 95 1007.6
20260506042645 10 70 0.0 3.2 0.00 0.00 0.00 94 1007.6
20260506042143 10 74 3.2 3.2 0.00 0.00 0.00 94 1007.5
20260506041641 10 41 1.6 3.2 0.00 0.00 0.00 94 1007.6
20260506041137 10 18 3.2 3.2 0.00 0.00 0.00 94 1007.5
20260506040635 10 50 1.6 3.2 0.00 0.00 0.00 93 1007.7
20260506040132 11 57 0.0 1.6 0.00 0.00 0.00 92 1007.6
20260506035629 11 113 0.0 1.6 0.00 0.10 0.10 93 1007.8
20260506035125 10 338 0.0 3.2 0.00 0.10 0.10 93 1007.8
20260506034622 11 72 3.2 3.2 0.00 0.10 0.10 92 1007.6
20260506034119 11 13 1.6 3.2 0.00 0.10 0.10 91 1007.9
20260506033617 11 108 3.2 3.2 0.00 0.10 0.10 91 1008.0
20260506033113 11 89 3.2 3.2 0.00 0.10 0.10 90 1008.1
20260506032611 11 14 1.6 1.6 0.00 0.10 0.10 90 1008.0
20260506032108 11 65 1.6 3.2 0.00 0.10 0.10 89 1008.2
20260506031605 11 84 1.6 3.2 0.00 0.10 0.10 89 1008.0
20260506031101 11 75 1.6 1.6 0.00 0.10 0.10 88 1008.2
20260506030600 12 78 3.2 4.8 0.00 0.10 0.10 87 1008.0
20260506030057 12 19 4.8 6.4 0.00 0.10 0.10 85 1007.9
20260506025554 12 26 6.4 6.4 0.00 0.10 0.10 85 1008.0
20260506025050 12 97 3.2 6.4 0.00 0.10 0.10 86 1007.7
20260506024547 12 17 3.2 6.4 0.00 0.10 0.10 85 1007.8
20260506024043 13 66 4.8 6.4 0.00 0.10 0.10 85 1007.9
20260506023539 13 44 6.4 8.0 0.00 0.10 0.10 86 1007.8
20260506023037 13 42 3.2 6.4 0.00 0.10 0.10 86 1007.8
20260506022534 13 16 6.4 8.0 0.00 0.10 0.10 86 1008.0
20260506022032 13 35 6.4 6.4 0.00 0.10 0.10 85 1007.9
20260506021529 14 31 6.4 9.7 0.00 0.10 0.10 85 1007.8
20260506021026 14 32 4.8 6.4 0.00 0.10 0.10 86 1007.8
20260506020524 15 32 6.4 8.0 0.00 0.10 0.10 86 1007.8
20260506020021 15 36 6.4 9.7 0.00 0.10 0.10 90 1007.7
20260506015519 14 79 3.2 3.2 0.00 0.10 0.10 92 1007.5
20260506015015 14 27 3.2 3.2 0.00 0.10 0.10 92 1007.6
20260506014513 14 27 3.2 4.8 0.00 0.10 0.10 92 1007.6
20260506014009 14 41 3.2 3.2 0.00 0.10 0.10 93 1007.4
20260506013507 14 53 3.2 4.8 0.00 0.10 0.10 92 1007.1
20260506013003 15 83 3.2 3.2 0.00 0.10 0.10 91 1006.9
20260506012459 15 34 0.0 3.2 0.00 0.10 0.10 91 1006.8
20260506011956 15 340 3.2 6.4 0.00 0.10 0.10 89 1006.7
20260506011453 15 19 0.0 4.8 0.00 0.10 0.10 91 1006.6
20260506010950 15 51 1.6 3.2 0.00 0.10 0.10 90 1006.8
20260506010449 16 97 3.2 6.4 0.00 0.10 0.10 89 1006.9
20260506005945 15 99 1.6 6.4 0.00 0.10 0.10 93 1006.8
20260506005443 15 71 3.2 3.2 0.00 0.10 0.10 95 1006.4
20260506004938 15 50 3.2 4.8 0.00 0.10 0.10 95 1006.2
20260506004436 15 101 3.2 3.2 0.00 0.10 0.10 95 1006.0
20260506003932 15 89 1.6 4.8 0.00 0.10 0.10 95 1006.0
20260506003429 15 33 4.8 4.8 0.00 0.10 0.10 95 1005.9
20260506002925 15 34 4.8 4.8 0.00 0.10 0.10 95 1005.7
20260506002421 15 61 3.2 3.2 0.00 0.10 0.10 94 1005.8
20260506001916 15 57 1.6 3.2 0.00 0.10 0.10 94 1005.7
20260506001414 15 52 3.2 3.2 0.00 0.10 0.10 94 1005.5
20260506000911 15 345 0.0 1.6 0.00 0.10 0.10 94 1005.4
20260506000409 16 332 1.6 3.2 0.00 0.10 0.10 93 1005.4
20260505235905 16 50 1.6 3.2 0.00 0.10 0.10 93 1005.7
20260505235403 16 347 0.0 1.6 0.00 0.10 0.10 93 1005.4
20260505234900 16 38 0.0 0.0 0.00 0.10 0.10 93 1005.3
20260505234358 16 73 1.6 1.6 0.00 0.10 0.10 93 1005.4
20260505233854 16 44 0.0 1.6 0.00 0.10 0.10 93 1005.3
20260505233352 16 67 0.0 1.6 0.00 0.10 0.10 92 1005.5
20260505232849 16 58 1.6 3.2 0.00 0.10 0.10 91 1005.5
20260505232347 17 37 0.0 1.6 0.00 0.10 0.10 90 1005.3
20260505231843 17 33 1.6 3.2 0.00 0.10 0.10 90 1005.5
20260505231341 17 322 0.0 1.6 0.00 0.10 0.10 91 1005.3
20260505230839 17 230 0.0 1.6 0.00 0.10 0.10 90 1005.4
20260505230336 17 89 0.0 3.2 0.00 0.10 0.10 90 1005.2
20260505225832 17 22 0.0 1.6 0.00 0.10 0.10 89 1005.1
20260505225330 17 20 3.2 4.8 0.00 0.10 0.10 88 1005.5
20260505224825 17 86 3.2 3.2 0.00 0.10 0.10 90 1005.1
20260505224323 17 113 4.8 4.8 0.00 0.10 0.10 87 1005.2
20260505223820 17 319 0.0 3.2 0.00 0.10 0.10 85 1005.5
20260505223317 18 356 0.0 3.2 0.05 0.10 0.10 83 1005.2
20260505222812 18 258 3.2 4.8 0.05 0.10 0.10 81 1005.1
20260505222309 18 40 0.0 4.8 0.00 0.10 0.10 79 1005.2
20260505221806 18 65 0.0 9.7 0.00 0.10 0.10 77 1005.5
20260505221302 18 138 6.4 6.4 0.00 0.10 0.10 76 1005.3
20260505220800 18 175 3.2 8.0 0.00 0.10 0.10 78 1005.1
20260505220257 19 219 4.8 8.0 0.00 0.10 0.10 75 1005.0
20260505215755 19 66 1.6 1.6 0.00 0.10 0.10 75 1004.3
20260505215252 19 80 6.4 6.4 0.00 0.10 0.10 73 1004.5
20260505214750 19 213 0.0 6.4 0.00 0.10 0.10 75 1004.6
20260505214247 20 83 1.6 3.2 0.00 0.10 0.10 76 1004.6
20260505213744 19 261 3.2 8.0 0.00 0.10 0.10 75 1004.6
20260505213242 19 64 3.2 6.4 0.00 0.10 0.10 76 1004.3
20260505212737 20 89 4.8 4.8 0.00 0.10 0.10 75 1004.4
20260505212235 20 146 3.2 6.4 0.00 0.10 0.10 77 1004.2
20260505211732 20 153 3.2 6.4 0.00 0.10 0.10 77 1004.4
20260505211229 20 102 3.2 3.2 0.00 0.10 0.10 78 1004.2
20260505210725 19 173 0.0 3.2 0.00 0.10 0.10 80 1004.4
20260505210222 18 133 1.6 4.8 0.00 0.10 0.10 80 1004.4
20260505205720 18 49 0.0 4.8 0.00 0.10 0.10 82 1004.5
20260505205218 18 103 4.8 4.8 0.00 0.10 0.10 82 1004.5
20260505204714 18 148 3.2 4.8 0.00 0.10 0.10 83 1004.8
20260505204212 18 198 0.0 4.8 0.00 0.10 0.10 82 1004.8
20260505203709 17 19 3.2 3.2 0.00 0.10 0.10 88 1004.6
20260505203206 17 35 1.6 3.2 0.00 0.10 0.10 90 1004.5
20260505202701 16 22 4.8 6.4 0.00 0.10 0.10 89 1004.8
20260505202158 16 30 4.8 6.4 0.00 0.10 0.10 92 1005.0
20260505201654 16 106 1.6 3.2 0.00 0.10 0.10 94 1005.0
20260505201152 16 89 3.2 4.8 0.05 0.10 0.10 95 1004.9
20260505200650 16 51 3.2 9.7 0.05 0.10 0.10 94 1004.9
20260505200147 16 30 3.2 9.7 0.00 0.08 0.08 92 1005.0
20260505195642 16 349 3.2 11.3 0.05 0.08 0.08 92 1005.0
20260505195140 16 96 11.3 11.3 0.00 0.08 0.08 90 1005.5
20260505194637 16 340 3.2 16.1 0.23 0.08 0.08 89 1005.9
20260505194133 16 277 17.7 20.9 0.36 0.08 0.08 88 1006.1
20260505193630 18 80 11.3 29.0 0.00 0.00 0.00 76 1005.4
20260505193127 24 188 19.3 20.9 0.00 0.00 0.00 39 1003.8
20260505192626 24 264 9.7 16.1 0.00 0.00 0.00 38 1003.1
20260505192123 24 243 14.5 29.0 0.00 0.00 0.00 37 1002.7
20260505191621 24 261 16.1 27.4 0.00 0.00 0.00 38 1002.9
20260505191119 25 266 12.9 24.1 0.00 0.00 0.00 38 1002.7
20260505190614 25 218 20.9 30.6 0.00 0.00 0.00 37 1002.6
20260505190109 25 201 3.2 24.1 0.00 0.00 0.00 40 1002.9
20260505185607 25 166 16.1 33.8 0.00 0.00 0.00 38 1002.6
20260505185102 25 219 14.5 19.3 0.00 0.00 0.00 39 1002.9
20260505184559 25 257 12.9 37.0 0.00 0.00 0.00 39 1002.8
20260505184056 25 173 16.1 37.0 0.00 0.00 0.00 39 1003.1
20260505183553 25 181 11.3 27.4 0.00 0.00 0.00 42 1003.0
20260505183051 25 290 14.5 35.4 0.00 0.00 0.00 45 1003.1
20260505182541 25 318 9.7 20.9 0.00 0.00 0.00 48 1003.1
20260505182037 25 332 3.2 19.3 0.00 0.00 0.00 47 1003.4
20260505181534 25 247 3.2 14.5 0.00 0.00 0.00 47 1003.7
20260505181032 24 154 4.8 25.7 0.00 0.00 0.00 49 1003.7
20260505180527 24 259 6.4 24.1 0.00 0.00 0.00 48 1003.7
20260505180026 24 141 11.3 19.3 0.00 0.00 0.00 47 1004.0
20260505175526 24 214 6.4 24.1 0.00 0.00 0.00 46 1004.0
20260505175023 24 248 8.0 24.1 0.00 0.00 0.00 47 1003.9
20260505174520 24 272 16.1 30.6 0.00 0.00 0.00 47 1004.1
20260505174016 24 205 4.8 20.9 0.00 0.00 0.00 46 1004.4
20260505173513 24 331 3.2 17.7 0.00 0.00 0.00 47 1004.2
20260505173010 24 175 4.8 24.1 0.00 0.00 0.00 49 1004.2
20260505172508 23 250 9.7 25.7 0.00 0.00 0.00 47 1004.4
20260505172008 23 245 16.1 17.7 0.00 0.00 0.00 48 1004.1
20260505171504 23 242 9.7 20.9 0.00 0.00 0.00 47 1004.2
20260505171001 23 237 8.0 19.3 0.00 0.00 0.00 46 1004.2
20260505170458 23 324 3.2 24.1 0.00 0.00 0.00 47 1004.1
20260505165953 23 258 9.7 32.2 0.00 0.00 0.00 47 1004.1
20260505165450 24 184 1.6 16.1 0.00 0.00 0.00 46 1003.7
20260505164945 24 148 4.8 11.3 0.00 0.00 0.00 48 1003.8
20260505164442 24 222 6.4 9.7 0.00 0.00 0.00 45 1003.8
20260505163940 24 122 0.0 12.9 0.00 0.00 0.00 46 1003.7
20260505163438 24 225 6.4 12.9 0.00 0.00 0.00 46 1003.8
20260505162937 23 214 6.4 20.9 0.00 0.00 0.00 47 1004.0
20260505162433 23 272 8.0 27.4 0.00 0.00 0.00 47 1004.2
20260505161930 23 286 9.7 22.5 0.00 0.00 0.00 46 1004.2
20260505161426 23 247 6.4 29.0 0.00 0.00 0.00 46 1004.1
20260505160924 23 283 8.0 19.3 0.00 0.00 0.00 45 1004.3
20260505160422 24 222 20.9 29.0 0.00 0.00 0.00 45 1004.5
20260505152858 24 308 6.4 19.3 0.00 0.00 0.00 46 1004.4
20260505152355 23 220 22.5 38.6 0.00 0.00 0.00 46 1004.3
20260505151855 23 287 9.7 17.7 0.00 0.00 0.00 47 1004.5
20260505151352 24 188 14.5 22.5 0.00 0.00 0.00 46 1004.3
20260505150849 23 219 6.4 17.7 0.00 0.00 0.00 48 1004.5
20260505150347 23 202 6.4 33.8 0.00 0.00 0.00 47 1004.5
20260505140316 22 256 3.2 22.5 0.00 0.00 0.00 52 1004.6
20260505130240 18 106 3.2 14.5 0.00 0.00 0.00 67 1005.5
20260505124731 17 257 4.8 6.4 0.00 0.00 0.00 71 1005.7
20260505124227 17 155 0.0 6.4 0.00 0.00 0.00 73 1005.7
20260505123722 17 199 1.6 6.4 0.00 0.00 0.00 74 1005.7
20260505123220 16 222 6.4 9.7 0.00 0.00 0.00 73 1005.7
20260505122716 16 166 3.2 8.0 0.00 0.00 0.00 76 1005.7
20260505122214 16 88 1.6 3.2 0.00 0.00 0.00 79 1005.6
20260505121710 15 272 1.6 6.4 0.00 0.00 0.00 79 1005.7
20260505121207 15 163 3.2 6.4 0.00 0.00 0.00 80 1005.7
20260505120703 15 132 3.2 4.8 0.00 0.00 0.00 81 1005.8
20260505120159 15 146 1.6 4.8 0.00 0.00 0.00 81 1005.8
20260505115653 15 214 1.6 6.4 0.00 0.00 0.00 81 1005.4
20260505115151 15 103 3.2 4.8 0.00 0.00 0.00 81 1005.6
20260505114648 15 74 1.6 3.2 0.00 0.00 0.00 79 1005.1
20260505114144 15 155 3.2 8.0 0.00 0.00 0.00 77 1005.2
20260505113640 15 341 1.6 9.7 0.00 0.00 0.00 80 1005.6
20260505113137 15 260 3.2 8.0 0.00 0.00 0.00 81 1005.5
20260505112633 15 180 3.2 8.0 0.05 0.00 0.00 80 1005.4
20260505112132 14 238 0.0 4.8 0.05 0.00 0.00 81 1005.7
20260505111631 15 228 6.4 22.5 0.00 0.00 0.00 76 1005.9
20260505111127 14 131 4.8 6.4 0.00 0.00 0.00 73 1005.4
20260505110624 13 51 0.0 3.2 0.00 0.00 0.00 75 1005.6
20260505110121 13 24 0.0 3.2 0.00 0.00 0.00 76 1005.8
20260505102056 11 64 1.6 3.2 0.00 0.00 0.00 82 1005.6
20260505101555 11 56 0.0 3.2 0.00 0.00 0.00 81 1005.5
20260505101051 11 88 1.6 3.2 0.00 0.00 0.00 79 1005.3
20260505100548 12 65 3.2 4.8 0.00 0.00 0.00 78 1005.4
20260505100044 12 35 0.0 4.8 0.00 0.00 0.00 76 1005.3
20260505095541 12 89 0.0 3.2 0.00 0.00 0.00 76 1005.1
20260505095037 12 254 3.2 4.8 0.00 0.00 0.00 76 1005.2
20260505094534 12 331 1.6 1.6 0.00 0.00 0.00 77 1004.9
20260505094030 12 69 0.0 3.2 0.00 0.00 0.00 75 1004.8
20260505093527 13 249 0.0 3.2 0.00 0.00 0.00 74 1004.8
20260505093024 13 284 1.6 3.2 0.00 0.00 0.00 72 1004.7
20260505092521 13 303 0.0 1.6 0.00 0.00 0.00 73 1004.9
20260505092020 13 38 0.0 3.2 0.00 0.00 0.00 71 1004.8
20260505091516 13 285 3.2 3.2 0.00 0.00 0.00 70 1004.6
20260505091014 14 318 3.2 6.4 0.00 0.00 0.00 69 1004.5
20260505090512 13 343 1.6 6.4 0.00 0.00 0.00 70 1004.5
20260505090010 13 298 4.8 6.4 0.00 0.00 0.00 70 1004.6
20260505085508 13 320 3.2 4.8 0.00 0.00 0.00 70 1004.6
20260505085006 13 305 3.2 6.4 0.00 0.00 0.00 70 1004.7
20260505084503 13 347 1.6 4.8 0.00 0.00 0.00 69 1004.8
20260505084001 13 293 3.2 3.2 0.00 0.00 0.00 69 1004.5
20260505083458 13 317 1.6 3.2 0.00 0.00 0.00 69 1004.4
20260505082954 13 302 3.2 3.2 0.00 0.00 0.00 69 1004.7
20260505082450 13 300 3.2 3.2 0.00 0.00 0.00 68 1004.7
20260505081947 13 273 3.2 4.8 0.00 0.00 0.00 68 1004.5
20260505081444 14 274 1.6 4.8 0.00 0.00 0.00 67 1004.7
20260505080940 14 308 1.6 4.8 0.00 0.00 0.00 67 1004.5
20260505080436 14 311 3.2 3.2 0.00 0.00 0.00 67 1004.9
20260505075932 14 280 4.8 4.8 0.00 0.00 0.00 67 1004.8
20260505075429 14 321 3.2 3.2 0.00 0.00 0.00 66 1004.6
20260505074927 14 324 0.0 3.2 0.00 0.00 0.00 66 1004.7
20260505074424 15 291 1.6 3.2 0.00 0.00 0.00 66 1004.9
20260505073921 15 241 1.6 3.2 0.00 0.00 0.00 64 1004.8
20260505073419 15 243 0.0 3.2 0.00 0.00 0.00 62 1004.9
20260505072916 15 11 3.2 3.2 0.00 0.00 0.00 61 1004.7
20260505072411 15 318 1.6 1.6 0.00 0.00 0.00 62 1004.8
20260505071908 15 328 1.6 3.2 0.00 0.00 0.00 62 1004.8
20260505071404 15 302 1.6 3.2 0.00 0.00 0.00 62 1004.7
20260505070902 15 257 3.2 4.8 0.00 0.00 0.00 62 1004.8
20260505070358 15 126 0.0 3.2 0.00 0.00 0.00 61 1004.9
20260505065854 15 198 3.2 6.4 0.00 0.00 0.00 60 1004.6
20260505065351 15 310 0.0 3.2 0.00 0.00 0.00 61 1004.9
20260505064848 15 214 0.0 1.6 0.00 0.00 0.00 61 1004.9
20260505064345 15 123 0.0 4.8 0.00 0.00 0.00 60 1004.8
20260505063843 15 121 0.0 6.4 0.00 0.00 0.00 59 1005.0
20260505063339 15 254 3.2 3.2 0.00 0.00 0.00 59 1004.8
20260505062836 16 58 4.8 4.8 0.00 0.00 0.00 58 1004.8
20260505062333 16 198 1.6 6.4 0.00 0.00 0.00 56 1004.9
20260505061830 16 310 1.6 6.4 0.00 0.00 0.00 56 1005.0
20260505061328 16 1 1.6 6.4 0.00 0.00 0.00 57 1004.7
20260505060825 16 337 0.0 6.4 0.00 0.00 0.00 56 1004.7
20260505060322 16 88 1.6 9.7 0.00 0.00 0.00 56 1005.0